SCP
-0 0 0 0 0 0 -0 0 0 0 -0 0 0 0 1 2 0 0 0 1 1 3 1 0 0 0 0 0 0 0 0 0 0 0 0 0 0 0 0 0 0 0 0 0
-0 0 0 0 0 0 0 -0 0 -0 -0 0 0 0 0 1 1 2 1 1 2 0 0 0 0 0 0 0 0 0 0 0 0 0 0 0 0 0 0 0 0 0 0 0
-0 0 -0 0 0 0 0 0 -0 0 -0 0 0 0 0 0 0 0 0 0 0 0 0 0 0 0 0 0 0 0 0 0 0 0 0 0 0 0 0 0 0 0 0 0
0 -0 -0 0 0 0 0 0 0 -0 0 0 0 0 0 0 0 0 0 0 0 0 0 0 0 0 0 0 0 0 0 0 0 0 0 0 0 0 0 0 0 0 0 0
-0 0 0 -0 -0 0 0 0 0 0 0 0 -0 -0 0 0 0 0 0 0 0 0 0 0 0 0 0 0 0 0 0 0 0 0 0 0 0 0 0 0 0 0 0 0
-0 -0 -0 -0 -0 0 0 0 -0 0 0 0 0 0 0 0 0 0 0 0 0 0 0 0 0 0 0 0 0 0 0 0 0 0 0 0 0 0 0 0 0 0 0 0
-0 -0 0 -0 0 0 0 0 0 0 0 0 0 0 0 0 0 0 0 0 0 0 0 0 0 0 0 0 0 0 0 0 0 0 0 0 0 0 0 0 0 0 0 0
0 -0 0 -0 0 0 0 0 0 0 0 0 0 0 0 0 0 0 0 0 0 0 0 0 0 0 0 0 0 0 0 0 0 0 0 0 0 0 0 0 0 0 0 0
-0 -0 0 0 0 0 0 0 0 0 0 0 0 0 0 0 0 0 0 0 0 0 0 0 0 0 0 0 0 0 0 0 0 0 0 0 0 0 0 0 0 0 0 0
0 0 -0 0 0 0 0 0 0 -0 0 0 0 0 0 0 0 0 0 0 0 0 0 0 0 0 0 0 0 0 0 0 0 0 0 0 0 0 0 0 0 0 0 0
0 -0 -0 0 0 0 0 0 0 0 0 0 0 0 0 0 0 0 0 0 0 0 0 0 0 0 0 0 0 0 0 0 0 0 0 0 0 0 0 0 0 0 0 0
0 0 -0 0 0 0 0 0 0 0 0 0 0 0 -0 0 0 0 0 0 0 0 0 0 0 0 0 0 0 0 0 0 0 0 0 0 0 0 0 0 0 0 0 0
0 0 0 0 0 0 0 0 0 0 0 0 0 0 0 0 0 0 0 0 0 0 0 0 0 0 0 0 0 0 0 0 0 0 0 0 0 0 0 0 0 0 0 0
-0 0 0 0 0 0 0 0 0 0 0 0 0 -0 0 0 0 0 0 0 0 0 0 0 0 0 0 0 0 0 0 0 0 0 0 0 0 0 0 0 0 0 0 0
0 0 0 0 0 0 0 0 0 0 0 0 -0 0 -0 -0 -0 -0 0 0 0 0 0 0 0 0 0 0 0 0 0 0 0 0 0 0 0 0 0 0 0 0 0 0
0 0 0 0 0 0 0 0 0 0 0 0 0 0 0 0 -0 -0 0 0 0 0 0 0 0 0 0 0 0 0 0 0 0 0 0 0 0 0 0 0 0 0 0 0
0 0 0 0 0 0 0 0 0 0 0 0 0 0 0 0 0 0 0 0 0 0 0 -0 -0 0 -0 0 0 0 0 0 0 0 0 0 0 0 0 0 0 0 0 0
0 0 0 0 0 0 0 0 0 0 0 0 0 0 0 0 0 0 0 0 0 0 0 0 0 0 0 0 0 0 0 0 0 0 0 0 0 0 0 0 0 0 0 0
0 0 0 0 0 0 0 0 0 0 0 0 0 0 0 0 0 0 0 0 0 0 0 0 0 0 0 0 0 0 0 0 0 0 0 0 0 0 0 0 0 0 0 0
0 0 0 0 0 0 0 0 0 0 0 0 0 0 0 0 0 0 0 0 0 0 0 0 0 0 0 0 0 0 0 0 0 0 0 0 0 0 0 0 0 0 0 0
0 0 0 0 0 0 0 0 0 0 0 0 0 0 0 0 0 0 0 0 0 0 0 0 0 0 0 0 0 0 0 0 0 0 0 0 0 0 0 0 0 0 0 0
0 0 0 0 0 0 0 0 0 0 0 0 0 0 0 0 0 0 0 0 0 0 0 0 0 0 0 0 0 0 0 0 0 0 0 0 0 0 0 0 0 0 0 0
0 0 0 0 0 0 0 0 0 0 0 0 0 0 0 0 0 0 0 0 0 0 0 0 0 0 0 0 0 0 0 0 0 0 0 0 0 0 0 0 0 0 0 0
0 0 0 0 0 0 0 0 0 0 0 0 0 0 0 0 0 0 0 0 0 0 0 0 0 0 0 0 0 0 0 0 0 0 0 0 0 0 0 0 0 0 0 0
0 0 0 0 0 0 0 0 0 0 0 0 0 0 0 0 0 0 0 0 0 0 0 0 0 0 0 0 0 0 0 0 0 0 0 0 0 0 0 0 0 0 0 0
0 0 0 0 0 0 0 0 0 0 0 0 0 0 0 0 0 0 0 0 0 0 0 0 0 0 0 0 0 -0 0 0 0 0 0 0 0 0 0 0 0 0 0 0
0 0 0 0 0 0 0 0 0 0 0 0 0 0 0 0 0 0 0 0 0 0 0 0 0 0 0 -0 -0 0 0 0 0 0 0 0 0 0 0 0 0 0 0 0
Wind_Speed_500mb
35 16 5 10 11 12 4 19 7 13 38 33 29 31 22 21 12 39 41 58 56 65 63 61 57 55 52 50 47 42 41 41 36 36 38 44 44 40 39 33 23 17 10 9
29 14 13 5 11 6 12 10 33 25 39 29 33 39 31 22 28 31 31 40 63 68 64 61 60 55 55 52 48 40 41 45 47 49 50 50 46 39 31 27 21 10 2 7
9 20 17 13 7 2 7 8 16 24 24 26 24 31 29 24 27 34 46 57 70 69 66 63 59 60 60 55 48 39 41 45 49 53 47 39 38 31 20 12 5 1 6 11
13 21 24 15 20 4 2 24 27 34 33 31 27 28 31 25 20 32 45 58 64 63 68 74 62 56 59 55 55 57 61 60 56 51 48 44 35 26 18 11 5 4 3 9
8 8 6 27 36 21 20 24 37 32 21 20 25 26 25 22 23 30 41 51 58 68 76 70 64 66 67 66 65 65 62 54 46 38 36 31 23 16 12 8 7 8 4 4
17 19 12 21 32 37 19 3 40 38 26 7 10 9 8 11 22 35 46 56 70 76 73 70 69 64 62 57 58 57 53 47 42 35 30 26 20 17 12 12 14 15 13 15
17 8 8 40 33 29 13 12 46 38 27 14 10 14 37 27 27 33 44 61 74 76 75 65 56 53 58 57 59 55 48 47 41 33 28 24 21 18 18 17 15 16 16 20
8 8 5 52 21 14 17 33 37 37 13 27 36 30 34 34 35 34 41 53 67 77 66 49 49 51 57 55 54 49 47 43 37 33 28 26 27 25 22 23 16 16 16 13
8 2 11 26 30 33 30 28 29 11 20 28 34 32 32 37 35 36 42 52 60 64 64 58 55 55 56 58 51 43 38 39 39 38 37 33 26 27 25 18 12 13 13 10
16 13 26 23 31 36 40 37 25 11 22 26 35 34 35 36 39 48 50 58 59 61 62 57 53 53 57 54 45 43 43 43 40 38 36 35 24 23 23 19 13 14 13 10
9 8 15 13 33 37 39 27 22 24 26 31 37 35 40 39 42 50 57 62 60 60 58 55 51 46 46 43 40 40 42 42 40 38 29 24 22 27 22 22 20 15 19 11
5 12 16 27 28 31 30 13 11 26 30 36 42 38 39 49 48 49 50 42 47 47 48 44 42 38 36 34 32 33 33 30 28 27 28 30 31 31 29 29 24 21 18 17
21 19 24 19 19 24 22 3 14 25 35 34 38 43 40 47 59 47 42 39 40 44 43 42 41 36 33 32 31 30 31 32 30 27 24 22 18 17 29 37 35 27 27 30
16 21 19 9 24 23 19 8 20 27 38 38 39 44 49 46 46 45 43 40 40 41 42 41 39 34 32 30 32 32 34 36 27 25 23 22 20 20 16 15 14 19 33 35
19 20 27 29 22 19 24 26 31 35 40 37 43 54 61 53 49 45 43 40 42 40 41 40 38 35 32 33 33 34 29 26 25 25 23 24 20 20 19 19 18 16 14 24
34 36 33 31 11 17 19 34 36 38 36 41 53 59 56 49 48 48 44 41 43 41 38 37 37 35 34 32 31 27 29 35 27 24 22 21 19 18 18 19 18 18 17 15
29 27 29 29 10 20 25 33 39 41 40 46 60 59 52 47 47 46 43 38 39 39 36 35 34 32 30 27 27 28 26 24 30 22 20 19 18 18 19 19 19 21 23 28
20 22 27 32 23 21 29 32 36 40 49 61 62 60 55 51 52 52 49 46 43 40 38 38 32 30 27 26 25 24 24 22 21 20 20 20 19 19 19 19 18 16 14 19
18 18 16 9 14 21 33 34 45 42 50 57 62 56 52 50 51 51 50 47 51 48 48 37 44 34 28 30 27 22 22 22 21 19 21 26 21 19 19 17 17 15 13 13
15 15 9 2 11 21 32 40 48 54 62 67 63 54 55 56 57 58 46 42 45 52 46 47 34 31 32 42 30 22 22 21 21 20 19 19 19 18 19 20 17 14 13 13
11 10 7 4 12 18 23 35 42 57 60 61 56 58 55 61 53 53 53 45 53 51 47 43 34 33 26 35 26 22 21 19 21 22 20 20 21 18 16 14 13 13 12 12
5 6 7 8 14 23 27 34 40 53 59 59 56 57 57 47 53 47 36 54 49 56 44 34 31 33 36 31 21 21 21 20 20 19 19 18 17 15 14 13 12 11 11 11
5 4 9 16 24 29 31 36 43 53 59 61 61 59 52 43 45 49 50 50 56 48 36 35 38 46 39 26 24 23 21 20 20 19 19 17 17 15 14 13 11 10 12 10
11 14 21 27 34 44 52 53 55 54 53 53 53 51 42 43 41 40 55 51 54 50 39 42 39 39 31 24 23 23 21 20 19 19 20 20 14 13 13 11 12 11 10 12
16 21 28 37 43 49 53 55 58 57 58 55 50 37 35 29 40 51 48 47 41 40 40 37 37 37 27 23 22 21 20 19 18 17 18 16 14 13 11 11 11 11 8 9
24 32 35 37 42 46 49 50 52 52 53 50 43 37 34 36 41 47 52 48 42 39 41 42 39 28 25 23 22 21 19 20 18 16 17 17 16 13 11 8 9 7 6 6
33 35 40 37 33 34 36 43 51 44 41 40 39 37 40 40 41 49 44 43 41 39 36 34 31 30 31 25 20 19 18 16 15 11 11 12 12 11 11 10 7 8 5 3
Wind_Direction_500mb
304 322 296 258 261 266 133 284 49 319 103 82 73 76 62 32 174 163 158 145 150 121 134 141 145 151 150 143 140 142 143 146 151 156 157 150 148 147 148 147 141 139 155 236
293 259 249 240 272 222 285 312 147 249 78 81 68 75 73 52 42 45 148 152 123 135 138 143 147 143 140 139 141 146 149 155 154 149 148 148 142 144 148 146 148 134 161 292
290 275 208 227 191 95 321 338 347 36 88 85 65 69 55 49 42 51 78 110 124 132 138 143 142 140 139 138 138 144 148 150 149 149 145 143 143 138 137 136 125 332 316 313
289 307 215 6 31 272 66 33 6 154 60 70 85 79 67 56 63 83 103 122 128 134 138 136 141 138 135 136 137 137 136 140 143 145 143 142 143 148 150 153 152 97 13 24
307 273 6 359 0 0 4 43 13 360 81 86 115 114 54 63 108 115 119 131 136 142 140 138 142 144 141 142 141 137 135 133 133 133 133 132 134 128 118 107 107 98 58 71
312 322 21 14 340 333 303 156 6 350 5 90 172 304 107 98 118 127 134 139 142 145 147 144 141 143 132 125 127 126 126 126 130 132 134 129 122 107 98 91 100 92 77 61
295 282 69 355 357 302 219 356 329 328 328 315 73 58 127 130 127 130 134 140 145 144 143 140 137 132 127 130 132 131 135 137 138 138 139 130 123 112 97 107 99 85 75 48
333 343 103 2 25 38 314 320 319 321 320 99 107 113 116 122 123 131 134 139 142 139 129 127 130 135 131 134 136 137 136 134 133 128 122 117 105 106 105 95 95 89 82 63
303 344 12 343 35 2 340 324 322 305 142 125 126 123 120 122 123 129 136 140 144 140 134 132 137 138 139 135 136 136 136 128 121 113 106 100 100 94 93 95 91 89 77 59
309 8 358 28 11 4 1 336 308 208 139 135 129 127 123 130 126 124 132 139 140 133 128 128 134 136 132 133 133 135 130 124 117 112 103 107 103 105 107 104 80 78 71 61
319 356 351 326 5 355 3 358 80 132 136 137 133 131 137 140 135 132 132 131 133 131 130 130 133 129 130 131 135 133 127 125 125 129 130 121 107 98 97 125 133 128 97 76
318 345 321 315 342 345 356 357 108 132 130 132 132 133 134 135 136 125 114 114 119 118 118 119 122 124 123 122 119 117 117 117 115 111 108 109 103 97 97 98 97 106 104 88
292 292 296 315 322 339 348 343 158 154 148 143 137 144 140 134 130 121 121 126 123 123 123 124 120 123 128 130 130 131 129 121 124 121 117 113 109 97 88 78 72 81 87 80
279 308 302 296 324 334 330 199 158 151 149 148 147 149 141 138 134 133 125 126 126 126 125 124 121 129 129 130 127 126 126 120 120 122 121 117 120 117 109 97 82 68 70 66
330 320 296 295 298 299 294 171 158 152 143 149 155 151 143 134 134 129 128 129 129 128 123 125 131 127 130 125 120 115 112 119 120 121 124 117 111 106 103 102 97 89 55 41
305 299 293 283 256 189 205 170 162 156 155 155 159 155 142 140 138 133 132 135 130 127 129 132 128 124 120 121 121 120 130 125 109 103 101 102 102 104 103 99 91 77 69 63
313 314 314 318 233 191 199 189 179 165 160 162 158 147 148 145 138 134 132 133 134 132 131 128 125 126 125 123 118 117 117 110 115 109 109 109 111 111 107 103 95 85 73 85
315 306 304 274 270 190 192 189 185 183 177 165 155 155 152 152 148 144 142 140 134 135 140 137 130 130 126 126 125 122 112 113 115 115 114 115 112 109 109 108 103 92 76 58
338 336 333 341 210 180 195 193 179 173 166 162 158 158 156 153 150 144 143 147 158 157 150 143 147 130 136 140 121 125 126 123 122 125 127 115 111 114 112 111 109 104 96 77
357 355 3 258 201 190 186 184 182 175 171 164 161 151 149 147 148 146 146 142 148 151 142 134 128 141 138 127 123 134 129 127 124 121 126 128 126 127 128 123 110 100 90 78
13 12 34 116 164 175 184 181 179 173 173 175 166 155 150 156 151 136 136 138 147 147 140 134 142 131 137 126 118 129 127 132 127 123 127 129 121 123 122 117 108 99 85 72
29 50 96 131 150 146 158 168 174 171 168 162 153 147 139 140 145 136 140 147 150 147 135 141 136 137 132 115 134 130 130 132 131 130 126 130 126 126 126 117 108 95 83 70
112 116 127 138 140 140 148 159 164 160 152 148 143 146 137 135 150 152 143 147 142 132 144 158 144 138 125 126 130 130 133 133 134 133 133 132 131 136 137 129 113 106 93 72
100 119 134 142 149 145 137 139 141 137 133 130 134 131 139 139 144 153 141 144 152 159 155 144 145 146 120 129 133 132 133 131 133 138 140 126 133 136 126 119 108 97 77 73
125 126 135 142 146 138 136 134 129 126 127 126 124 127 138 159 154 150 147 149 152 151 147 144 142 130 128 134 138 138 137 139 133 132 134 141 144 135 129 128 125 117 91 79
135 127 134 139 137 138 138 138 129 129 128 126 129 133 132 134 142 145 149 153 153 155 150 147 147 129 135 139 137 145 156 141 138 157 166 163 153 140 138 138 126 106 85 80
123 121 121 114 115 128 136 140 133 127 131 133 134 135 143 147 153 155 156 152 153 156 156 153 155 150 148 138 132 125 131 150 157 178 183 185 188 190 186 172 190 182 148 236
Wind_Speed_850mb
35 16 5 10 11 12 4 19 7 13 38 33 29 31 22 21 12 39 41 58 56 65 63 61 57 55 52 50 47 42 41 41 36 36 38 44 44 40 39 33 23 17 10 9
29 14 13 5 11 6 12 10 33 25 39 29 33 39 31 22 28 31 31 40 63 68 64 61 60 55 55 52 48 40 41 45 47 49 50 50 46 39 31 27 21 10 2 7
9 20 17 13 7 2 7 8 16 24 24 26 24 31 29 24 27 34 46 57 70 69 66 63 59 60 60 55 48 39 41 45 49 53 47 39 38 31 20 12 5 1 6 11
13 21 24 15 20 4 2 24 27 34 33 31 27 28 31 25 20 32 45 58 64 63 68 74 62 56 59 55 55 57 61 60 56 51 48 44 35 26 18 11 5 4 3 9
8 8 6 27 36 21 20 24 37 32 21 20 25 26 25 22 23 30 41 51 58 68 76 70 64 66 67 66 65 65 62 54 46 38 36 31 23 16 12 8 7 8 4 4
17 19 12 21 32 37 19 3 40 38 26 7 10 9 8 11 22 35 46 56 70 76 73 70 69 64 62 57 58 57 53 47 42 35 30 26 20 17 12 12 14 15 13 15
17 8 8 40 33 29 13 12 46 38 27 14 10 14 37 27 27 33 44 61 74 76 75 65 56 53 58 57 59 55 48 47 41 33 28 24 21 18 18 17 15 16 16 20
8 8 5 52 21 14 17 33 37 37 13 27 36 30 34 34 35 34 41 53 67 77 66 49 49 51 57 55 54 49 47 43 37 33 28 26 27 25 22 23 16 16 16 13
8 2 11 26 30 33 30 28 29 11 20 28 34 32 32 37 35 36 42 52 60 64 64 58 55 55 56 58 51 43 38 39 39 38 37 33 26 27 25 18 12 13 13 10
16 13 26 23 31 36 40 37 25 11 22 26 35 34 35 36 39 48 50 58 59 61 62 57 53 53 57 54 45 43 43 43 40 38 36 35 24 23 23 19 13 14 13 10
9 8 15 13 33 37 39 27 22 24 26 31 37 35 40 39 42 50 57 62 60 60 58 55 51 46 46 43 40 40 42 42 40 38 29 24 22 27 22 22 20 15 19 11
5 12 16 27 28 31 30 13 11 26 30 36 42 38 39 49 48 49 50 42 47 47 48 44 42 38 36 34 32 33 33 30 28 27 28 30 31 31 29 29 24 21 18 17
21 19 24 19 19 24 22 3 14 25 35 34 38 43 40 47 59 47 42 39 40 44 43 42 41 36 33 32 31 30 31 32 30 27 24 22 18 17 29 37 35 27 27 30
16 21 19 9 24 23 19 8 20 27 38 38 39 44 49 46 46 45 43 40 40 41 42 41 39 34 32 30 32 32 34 36 27 25 23 22 20 20 16 15 14 19 33 35
19 20 27 29 22 19 24 26 31 35 40 37 43 54 61 53 49 45 43 40 42 40 41 40 38 35 32 33 33 34 29 26 25 25 23 24 20 20 19 19 18 16 14 24
34 36 33 31 11 17 19 34 36 38 36 41 53 59 56 49 48 48 44 41 43 41 38 37 37 35 34 32 31 27 29 35 27 24 22 21 19 18 18 19 18 18 17 15
29 27 29 29 10 20 25 33 39 41 40 46 60 59 52 47 47 46 43 38 39 39 36 35 34 32 30 27 27 28 26 24 30 22 20 19 18 18 19 19 19 21 23 28
20 22 27 32 23 21 29 32 36 40 49 61 62 60 55 51 52 52 49 46 43 40 38 38 32 30 27 26 25 24 24 22 21 20 20 20 19 19 19 19 18 16 14 19
18 18 16 9 14 21 33 34 45 42 50 57 62 56 52 50 51 51 50 47 51 48 48 37 44 34 28 30 27 22 22 22 21 19 21 26 21 19 19 17 17 15 13 13
15 15 9 2 11 21 32 40 48 54 62 67 63 54 55 56 57 58 46 42 45 52 46 47 34 31 32 42 30 22 22 21 21 20 19 19 19 18 19 20 17 14 13 13
11 10 7 4 12 18 23 35 42 57 60 61 56 58 55 61 53 53 53 45 53 51 47 43 34 33 26 35 26 22 21 19 21 22 20 20 21 18 16 14 13 13 12 12
5 6 7 8 14 23 27 34 40 53 59 59 56 57 57 47 53 47 36 54 49 56 44 34 31 33 36 31 21 21 21 20 20 19 19 18 17 15 14 13 12 11 11 11
5 4 9 16 24 29 31 36 43 53 59 61 61 59 52 43 45 49 50 50 56 48 36 35 38 46 39 26 24 23 21 20 20 19 19 17 17 15 14 13 11 10 12 10
11 14 21 27 34 44 52 53 55 54 53 53 53 51 42 43 41 40 55 51 54 50 39 42 39 39 31 24 23 23 21 20 19 19 20 20 14 13 13 11 12 11 10 12
16 21 28 37 43 49 53 55 58 57 58 55 50 37 35 29 40 51 48 47 41 40 40 37 37 37 27 23 22 21 20 19 18 17 18 16 14 13 11 11 11 11 8 9
24 32 35 37 42 46 49 50 52 52 53 50 43 37 34 36 41 47 52 48 42 39 41 42 39 28 25 23 22 21 19 20 18 16 17 17 16 13 11 8 9 7 6 6
33 35 40 37 33 34 36 43 51 44 41 40 39 37 40 40 41 49 44 43 41 39 36 34 31 30 31 25 20 19 18 16 15 11 11 12 12 11 11 10 7 8 5 3
Wind_Direction_850mb
304 322 296 258 261 266 133 284 49 319 103 82 73 76 62 32 174 163 158 145 150 121 134 141 145 151 150 143 140 142 143 146 151 156 157 150 148 147 148 147 141 139 155 236
293 259 249 240 272 222 285 312 147 249 78 81 68 75 73 52 42 45 148 152 123 135 138 143 147 143 140 139 141 146 149 155 154 149 148 148 142 144 148 146 148 134 161 292
290 275 208 227 191 95 321 338 347 36 88 85 65 69 55 49 42 51 78 110 124 132 138 143 142 140 139 138 138 144 148 150 149 149 145 143 143 138 137 136 125 332 316 313
289 307 215 6 31 272 66 33 6 154 60 70 85 79 67 56 63 83 103 122 128 134 138 136 141 138 135 136 137 137 136 140 143 145 143 142 143 148 150 153 152 97 13 24
307 273 6 359 0 0 4 43 13 360 81 86 115 114 54 63 108 115 119 131 136 142 140 138 142 144 141 142 141 137 135 133 133 133 133 132 134 128 118 107 107 98 58 71
312 322 21 14 340 333 303 156 6 350 5 90 172 304 107 98 118 127 134 139 142 145 147 144 141 143 132 125 127 126 126 126 130 132 134 129 122 107 98 91 100 92 77 61
295 282 69 355 357 302 219 356 329 328 328 315 73 58 127 130 127 130 134 140 145 144 143 140 137 132 127 130 132 131 135 137 138 138 139 130 123 112 97 107 99 85 75 48
333 343 103 2 25 38 314 320 319 321 320 99 107 113 116 122 123 131 134 139 142 139 129 127 130 135 131 134 136 137 136 134 133 128 122 117 105 106 105 95 95 89 82 63
303 344 12 343 35 2 340 324 322 305 142 125 126 123 120 122 123 129 136 140 144 140 134 132 137 138 139 135 136 136 136 128 121 113 106 100 100 94 93 95 91 89 77 59
309 8 358 28 11 4 1 336 308 208 139 135 129 127 123 130 126 124 132 139 140 133 128 128 134 136 132 133 133 135 130 124 117 112 103 107 103 105 107 104 80 78 71 61
319 356 351 326 5 355 3 358 80 132 136 137 133 131 137 140 135 132 132 131 133 131 130 130 133 129 130 131 135 133 127 125 125 129 130 121 107 98 97 125 133 128 97 76
318 345 321 315 342 345 356 357 108 132 130 132 132 133 134 135 136 125 114 114 119 118 118 119 122 124 123 122 119 117 117 117 115 111 108 109 103 97 97 98 97 106 104 88
292 292 296 315 322 339 348 343 158 154 148 143 137 144 140 134 130 121 121 126 123 123 123 124 120 123 128 130 130 131 129 121 124 121 117 113 109 97 88 78 72 81 87 80
279 308 302 296 324 334 330 199 158 151 149 148 147 149 141 138 134 133 125 126 126 126 125 124 121 129 129 130 127 126 126 120 120 122 121 117 120 117 109 97 82 68 70 66
330 320 296 295 298 299 294 171 158 152 143 149 155 151 143 134 134 129 128 129 129 128 123 125 131 127 130 125 120 115 112 119 120 121 124 117 111 106 103 102 97 89 55 41
305 299 293 283 256 189 205 170 162 156 155 155 159 155 142 140 138 133 132 135 130 127 129 132 128 124 120 121 121 120 130 125 109 103 101 102 102 104 103 99 91 77 69 63
313 314 314 318 233 191 199 189 179 165 160 162 158 147 148 145 138 134 132 133 134 132 131 128 125 126 125 123 118 117 117 110 115 109 109 109 111 111 107 103 95 85 73 85
315 306 304 274 270 190 192 189 185 183 177 165 155 155 152 152 148 144 142 140 134 135 140 137 130 130 126 126 125 122 112 113 115 115 114 115 112 109 109 108 103 92 76 58
338 336 333 341 210 180 195 193 179 173 166 162 158 158 156 153 150 144 143 147 158 157 150 143 147 130 136 140 121 125 126 123 122 125 127 115 111 114 112 111 109 104 96 77
357 355 3 258 201 190 186 184 182 175 171 164 161 151 149 147 148 146 146 142 148 151 142 134 128 141 138 127 123 134 129 127 124 121 126 128 126 127 128 123 110 100 90 78
13 12 34 116 164 175 184 181 179 173 173 175 166 155 150 156 151 136 136 138 147 147 140 134 142 131 137 126 118 129 127 132 127 123 127 129 121 123 122 117 108 99 85 72
29 50 96 131 150 146 158 168 174 171 168 162 153 147 139 140 145 136 140 147 150 147 135 141 136 137 132 115 134 130 130 132 131 130 126 130 126 126 126 117 108 95 83 70
112 116 127 138 140 140 148 159 164 160 152 148 143 146 137 135 150 152 143 147 142 132 144 158 144 138 125 126 130 130 133 133 134 133 133 132 131 136 137 129 113 106 93 72
100 119 134 142 149 145 137 139 141 137 133 130 134 131 139 139 144 153 141 144 152 159 155 144 145 146 120 129 133 132 133 131 133 138 140 126 133 136 126 119 108 97 77 73
125 126 135 142 146 138 136 134 129 126 127 126 124 127 138 159 154 150 147 149 152 151 147 144 142 130 128 134 138 138 137 139 133 132 134 141 144 135 129 128 125 117 91 79
135 127 134 139 137 138 138 138 129 129 128 126 129 133 132 134 142 145 149 153 153 155 150 147 147 129 135 139 137 145 156 141 138 157 166 163 153 140 138 138 126 106 85 80
123 121 121 114 115 128 136 140 133 127 131 133 134 135 143 147 153 155 156 152 153 156 156 153 155 150 148 138 132 125 131 150 157 178 183 185 188 190 186 172 190 182 148 236